Location: Mesa Verde
(33.6055°N, 114.7275°W)
Time: 11:43:28
(UTC+00:00)

N. Korean satellite - Visible Passes

Search period start: 28 September 2021 00:00
Search period end: 08 October 2021 00:00
Orbit: 449 x 498 km, 97.3° (Epoch: 27 September)

Date Brightness Start Highest point End Pass type
(mag) Time Alt. Az. Time Alt. Az. Time Alt. Az.
29 Sep 7.1 12:41:43 10° NNE 12:45:17 62° E 12:48:53 10° S visible
30 Sep 9.1 12:14:25 10° NE 12:17:24 24° E 12:20:25 10° SSE visible
01 Oct 10.2 11:48:54 10° E 11:49:25 10° E 11:49:56 10° ESE visible
02 Oct 6.6 12:51:19 10° NNE 12:54:57 87° ESE 12:58:35 10° SSW visible
03 Oct 8.5 12:23:45 10° NNE 12:27:04 33° E 12:30:22 10° SSE visible
04 Oct 9.9 11:57:04 10° ENE 11:59:04 14° E 12:01:04 10° SE visible
05 Oct 6.5 13:00:52 10° N 13:04:29 66° WNW 13:08:06 10° SSW visible
06 Oct 7.8 12:33:04 10° NNE 12:36:36 45° E 12:40:06 10° S visible
07 Oct 9.5 12:05:56 10° NE 12:08:36 19° E 12:11:14 10° SE visible
